Карточка аэропорта UWLW

Внимание!
Информация на этой странице в стадии наполнения.
Если вы не увидели какой-то информации, или заметили неточность - пожалуйста сообщите нам!
Спасибо!
Команда RU-STAFF
Название аэропортаВосточный
Название аэропорта (англ.)Vostochny
Превышение252 ft. (76.8 m.)
Координаты54°24', 48°48'
Высота перехода900m
Эшелон переходаQFE>=726mm:FL050; QFE<726:FL060
Коды ответчика6725-6727
Зона ОрВДСамара РПИ (UWWW)
Данные METARUWLW 151000Z 02003MPS 340V050 9999 BKN040CB 29/19 Q1011 R20/CLRD60 NOSIG RMK QFE753/1004
Проноз погоды (TAF)UWLW 150800Z 1509/1609 22003MPS 9999 SCT030 TX32/1510Z TN18/1602Z TEMPO 1509/1518 VRB15MPS 6000 -TSRA SQ BKN016CB BECMG 1522/1524 35003MPS
NOTAMshow/hide NOTAM
AWOS   TABLE

Информация о ВПП

ВПП Длина ВПП (м.) Покрытие Курс ВПП Частота ILS
025000Железобетон20110.1
205000Железобетон200110.1

Диспетчерские позиции


Сценарии



Спутниковое изображение